This is the latest recevied weather packets stored in our database for station/object AA4OM-2. If no packets are shown the sender has not sent any weather packets the latest 10 day(s).
| Time | Temp. | Humidity | Pressure | Rain* | Wind** | Luminosity | Snow |
|---|---|---|---|---|---|---|---|
| 1777873682 | 13.33° C | 61% | 1014.6 hPa | 0 mm | - | 0 W/m² | - |
| 1777873380 | 13.33° C | 61% | 1014.7 hPa | 0 mm | - | 0 W/m² | - |
| 1777873076 | 13.33° C | 62% | 1015.1 hPa | 0 mm | - | 0 W/m² | - |
| 1777872773 | 12.78° C | 65% | 1014.8 hPa | 0 mm | - | 0 W/m² | - |
| 1777872470 | 12.78° C | 67% | 1014.6 hPa | 0 mm | - | 0 W/m² | - |
| 1777872169 | 12.78° C | 64% | 1014.9 hPa | 0 mm | - | 0 W/m² | - |
| 1777871865 | 12.78° C | 67% | 1014.8 hPa | 0 mm | - | 0 W/m² | - |
| 1777871562 | 12.78° C | 65% | 1014.9 hPa | 0 mm | - | 0 W/m² | - |
| 1777871258 | 12.78° C | 66% | 1014.8 hPa | 0 mm | - | 0 W/m² | - |
| 1777870955 | 12.78° C | 67% | 1014.9 hPa | 0 mm | - | 0 W/m² | - |
| 1777870652 | 12.22° C | 67% | 1015.1 hPa | 0 mm | - | 0 W/m² | - |
| 1777870347 | 11.67° C | 69% | 1015 hPa | 0 mm | - | 0 W/m² | - |
| 1777870045 | 11.11° C | 73% | 1015 hPa | 0 mm | - | 0 W/m² | - |
| 1777869742 | 11.11° C | 76% | 1014.8 hPa | 0 mm | - | 0 W/m² | - |
| 1777869440 | 11.11° C | 75% | 1015.1 hPa | 0 mm | - | 0 W/m² | - |
| 1777869136 | 11.11° C | 73% | 1015.2 hPa | 0 mm | - | 0 W/m² | - |
| 1777868834 | 10.56° C | 76% | 1015.3 hPa | 0 mm | - | 0 W/m² | - |
| 1777868530 | 10.56° C | 76% | 1015.2 hPa | 0 mm | - | 0 W/m² | - |
| 1777868226 | 10.56° C | 78% | 1015.2 hPa | 0 mm | - | 0 W/m² | - |
| 1777867922 | 10.56° C | 79% | 1015.3 hPa | 0 mm | - | 0 W/m² | - |
| 1777867619 | 10.56° C | 78% | 1015.1 hPa | 0 mm | - | 0 W/m² | - |
| 1777867316 | 10.56° C | 79% | 1015.2 hPa | 0 mm | - | 0 W/m² | - |
| 1777867012 | 10° C | 80% | 1015.1 hPa | 0 mm | - | 0 W/m² | - |
| 1777866710 | 10° C | 80% | 1015.3 hPa | 0 mm | - | 0 W/m² | - |
| 1777866407 | 10° C | 79% | 1015.1 hPa | 0 mm | - | 0 W/m² | - |
* Rain latest hour (hover to see other rain measurements)
** Current wind speed in m/s (hover to see current wind gust speed)